Location: Hurstbourne Priors
(51.2000°N, 1.3667°W)
Time: 00:27:26
(UTC+00:00)

deb Explorer IX - All Passes

Search period start: 19 April 2021 00:00
Search period end: 29 April 2021 00:00
Orbit: 540 x 1099 km, 38.8° (Epoch: 17 April)

Date Brightness Start Highest point End Pass type
(mag) Time Alt. Az. Time Alt. Az. Time Alt. Az.
19 Apr - 08:06:08 10° SSW 08:08:53 16° SSE 08:11:49 10° SE daylight
19 Apr - 09:51:00 10° SW 09:54:39 21° S 09:58:41 10° SE daylight
19 Apr - 11:37:30 10° SW 11:40:33 15° SSW 11:43:48 10° SSE daylight
20 Apr - 07:42:40 10° SSW 07:45:13 15° SSE 07:47:55 10° SE daylight
20 Apr - 09:27:30 10° SW 09:30:57 20° S 09:34:45 10° SE daylight
20 Apr - 11:14:03 10° SW 11:16:49 14° SSW 11:19:47 10° SSE daylight
21 Apr - 07:19:11 10° SSW 07:21:33 14° SSE 07:24:02 10° SE daylight
21 Apr - 09:04:00 10° SW 09:07:16 19° S 09:10:50 10° SE daylight
21 Apr - 10:50:36 10° SW 10:53:05 14° SSW 10:55:44 10° S daylight
22 Apr - 06:55:43 10° SSW 06:57:54 14° SSE 07:00:10 10° SE daylight
22 Apr - 08:40:30 10° SW 08:43:35 18° S 08:46:56 10° SE daylight
22 Apr - 10:27:12 10° SW 10:29:23 13° SSW 10:31:43 10° S daylight
23 Apr - 06:32:15 10° SSW 06:34:14 13° SSE 06:36:20 10° SE daylight
23 Apr - 08:17:01 10° SW 08:19:56 17° S 08:23:05 10° SE daylight
23 Apr - 10:03:51 10° SW 10:05:42 12° SSW 10:07:39 10° S daylight
24 Apr - 06:08:44 10° SSW 06:10:36 13° SSE 06:12:31 10° SE daylight
24 Apr - 07:53:32 10° SW 07:56:17 17° S 07:59:14 10° SE daylight
24 Apr - 09:40:32 10° SW 09:42:02 11° SSW 09:43:35 10° S daylight
25 Apr - 05:45:15 10° S 05:46:59 12° SSE 05:48:45 10° SE daylight
25 Apr - 07:30:02 10° SW 07:32:39 16° S 07:35:24 10° SE daylight
25 Apr - 09:17:19 10° SSW 09:18:22 11° SSW 09:19:27 10° S daylight
26 Apr - 05:21:42 10° S 05:23:21 12° SSE 05:25:01 10° SE daylight
26 Apr - 07:06:31 10° SW 07:09:00 15° S 07:11:37 10° SE daylight
26 Apr - 08:54:27 10° SSW 08:54:42 10° SSW 08:54:57 10° SSW daylight
27 Apr - 04:58:07 10° S 04:59:43 12° SSE 05:01:20 10° SE daylight
27 Apr - 06:43:00 10° SW 06:45:23 15° S 06:47:51 10° SSE daylight
28 Apr - 04:34:30 10° S 04:36:06 12° SSE 04:37:41 10° SE daylight
28 Apr - 06:19:27 10° SW 06:21:45 15° S 06:24:08 10° SSE daylight
